Tracking 17145 objects as of 24-May-2015
HD Live streaming from Space Station

IRIDIUM 18

Track IRIDIUM 18 now!
10-day predictions
IRIDIUM 18 is classified as:


NORAD ID: 24872
Int'l Code: 1997-034D
Perigee: 783.3 km
Apogee: 786.3 km
Inclination: 86.4 °
Period: 100.4 minutes
Semi major axis: 7155 km
RCS: 3.8649 m2 (large)
Launch date: July 9, 1997
Source: United States (US)
Your satellite tracking list
Your tracking list is empty





NASA's NSSDC Master Catalog

Two Line Element Set (TLE):
1 24872U 97034D   15143.52994128  .00000010  00000-0 -34955-5 0  9993
2 24872 086.3949 337.9015 0002049 089.1085 271.0346 14.34216164935606

Source of the keplerian elements: AFSPC

N2YO: 319